Simultaneous Nadir Overpasses (SNOs) Predictions

Prediction of SNOs between LANDSAT-8 and NOAA-19 Satellite Orbit:

Table of predicted SNOs for the next 14.0 days since TLE Epoch: 1/4/2020
Index Date (LANDSAT-8) Time (LANDSAT-8) Lat,Lon (LANDSAT-8) SZA (LANDSAT-8 ) Date (NOAA-19) Time (NOAA-19) Lat,Lon (NOAA-19) SZA (NOAA-19 ) Distance(km) Time Diff (sec)
1 01/04/2020 06:24:33 79.38, 106.87 102.80 01/04/2020 06:24:21 79.38, 106.80 102.80 1.64 12
2 01/04/2020 07:14:01 -79.34, -85.70 77.25 01/04/2020 07:15:14 -79.33, -85.51 77.23 4.22 73
3 01/06/2020 11:58:17 -79.38,-156.56 77.46 01/06/2020 11:57:37 -79.40,-156.67 77.45 3.57 40
4 01/06/2020 12:47:43 79.37, 11.04 102.53 01/06/2020 12:48:42 79.37, 10.88 102.53 3.37 59
5 01/08/2020 17:31:59 79.40, -59.83 102.28 01/08/2020 17:31:03 79.38, -59.75 102.25 2.64 56
6 01/08/2020 18:21:27 -79.37, 107.62 77.77 01/08/2020 18:21:57 -79.36, 107.70 77.76 2.02 30
7 01/10/2020 23:55:09 79.39,-155.67 101.93 01/10/2020 23:55:24 79.38,-155.70 101.92 1.93 15
8 01/13/2020 05:28:53 -79.40, -59.08 78.44 01/13/2020 05:28:40 -79.39, -59.09 78.44 0.35 13
9 01/15/2020 11:02:35 79.41, 37.61 101.19 01/15/2020 11:02:06 79.39, 37.65 101.17 2.45 29
10 01/15/2020 11:52:03 -79.39,-154.92 78.85 01/15/2020 11:53:01 -79.38,-155.00 78.85 1.85 58
11 01/17/2020 16:36:19 -79.42, 134.21 79.24 01/17/2020 16:35:23 -79.43, 134.11 79.25 2.05 56




NCC Satellite Simultaneous Nadir Overpasses (SNOs) Prediction Service
